Regional Weather Roundup
Issued by NWS

Home | Current Version | Previous Version | Graphics & Text | Print | Product List | Glossary Off
Versions: 1 2 3 4 5 6 7 8 9 10 11 12 13 14 15 16 17 18 19 20 21 22 23 24 25 26 27 28 29 30 31 32 33 34 35 36 37 38 39 40 41 42 43 44 45 46 47 48 49 50

000
ASUS43 KTOP 011759
RWRKS

WEATHER ROUNDUP FOR KANSAS
NATIONAL WEATHER SERVICE GOODLAND KS
100 PM CDT MON SEP 01 2014

NOTE:  "FAIR" INDICATES FEW OR NO CLOUDS BELOW 12,000 FEET WITH NO
SIGNIFICANT WEATHER AND/OR OBSTRUCTIONS TO VISIBILITY.

KSZ001>006-013>018-027>032-041>047-011900-
NORTHWEST KANSAS

CITY           SKY/WX    TMP DP  RH WIND       PRES   REMARKS
GOODLAND       SUNNY     73  47  39 CALM      30.03F
6HR MIN TEMP:  50; 6HR MAX TEMP:  73;

HAYS           CLOUDY    73  57  56 N6        29.95F
HILL CITY      SUNNY     77  54  44 VRB5      29.96F
6HR MIN TEMP:  57; 6HR MAX TEMP:  77;

RUSSELL        CLOUDY    76  61  59 NE7       29.93F
6HR MIN TEMP:  62; 6HR MAX TEMP:  76;

$$

KSZ061>065-074>080-084>089-011900-
SOUTHWEST KANSAS

CITY           SKY/WX    TMP DP  RH WIND       PRES   REMARKS
DODGE CITY     CLOUDY    73  62  68 NE10      29.95S
6HR MIN TEMP:  60; 6HR MAX TEMP:  73;

ELKHART          N/A     78  56  46 N10         N/A
GARDEN CITY    SUNNY     79  60  52 NE13      29.95F
6HR MIN TEMP:  58; 6HR MAX TEMP:  79;

GREAT BEND     CLOUDY    72  63  73 NE9       29.94S
LIBERAL        SUNNY     79  61  53 NE16      29.95F
$$

KSZ066>073-081>083-090>101-011900-
SOUTHEAST KANSAS

CITY           SKY/WX    TMP DP  RH WIND       PRES   REMARKS
CHANUTE        CLOUDY    76  66  71 S20       29.91F
6HR MIN TEMP:  65; 6HR MAX TEMP:  76;

COFFEYVILLE    MOSUNNY   78  68  71 S21G28    29.89F
6HR MIN TEMP:  67; 6HR MAX TEMP:  80;

HUTCHINSON     CLOUDY    77  64  64 E8        29.90F
6HR MIN TEMP:  65; 6HR MAX TEMP:  77;

MEDICINE LODGE   N/A     85  69  58 MISG      29.83F
NEWTON         CLOUDY    73  63  68 SE9       29.93F
PARSONS        CLOUDY    80  68  66 S13G25    29.90F
6HR MIN TEMP:  66; 6HR MAX TEMP:  80; 6HR PCP:  0.04;

WICHITA INTL   CLOUDY    83  68  60 SE9G18    29.87F
6HR MIN TEMP:  68; 6HR MAX TEMP:  83;

WICHITA JABRA  CLOUDY    78  68  71 S9        29.88F
6HR MIN TEMP:  66; 6HR MAX TEMP:  79;

WINFIELD       MOSUNNY   83  70  64 SE16      29.87F
6HR MIN TEMP:  69; 6HR MAX TEMP:  83;

$$

KSZ007>012-019>026-033>040-048>060-102>105-011900-
NORTHEAST KANSAS

CITY           SKY/WX    TMP DP  RH WIND       PRES   REMARKS
CONCORDIA      PTSUNNY   73  63  70 CALM      29.93F
6HR MIN TEMP:  61; 6HR MAX TEMP:  75;

EMPORIA        CLOUDY    76  65  68 S12       29.91F
6HR MIN TEMP:  63; 6HR MAX TEMP:  76;

LAWRENCE       PTSUNNY  N/A N/A N/A W10G20    29.91S
MANHATTAN      CLOUDY    78  66  66 W7        29.91S
6HR MIN TEMP:  64; 6HR MAX TEMP:  79;

OLATHE IND     PTSUNNY   78  67  68 W12       29.92S
6HR MIN TEMP:  65; 6HR MAX TEMP:  79;

OLATHE EXE     MOSUNNY   78  67  68 W9        29.92R
6HR MIN TEMP:  64; 6HR MAX TEMP:  78;

SALINA         CLOUDY    76  65  68 SE5       29.92F
6HR MIN TEMP:  63; 6HR MAX TEMP:  77;

TOPEKA BILLARD CLOUDY    79  67  66 SW9G17    29.91S
6HR MIN TEMP:  67; 6HR MAX TEMP:  80;

TOPEKA FORBES  CLOUDY    77  65  66 SW13      29.92S
6HR MIN TEMP:  65; 6HR MAX TEMP:  79;

$$


USA.gov is the U.S. government's official web portal to all federal, state and local government web resources and services.